Location: Buchloe
(48.0161°N, 10.7316°E)
Time: 04:39:18
(UTC+02:00)

ISS - Pass Details

Date: 13 July 2025
Orbit: 413 x 417 km, 51.6° (Epoch: 12 July)

Event Time Altitude Azimuth Distance (km) Brightness Sun altitude
Rises 01:58:49 0° 292° (WNW) 2,356 0.2 -19.7°
Reaches altitude 10° 02:00:55 10° 290° (WNW) 1,492 -0.8 -19.6°
Enters shadow 02:03:20 43° 276° (W) 594 -3.1 -19.6°
